Home > Weather > Rochester > Past weeks

Flag for USA Past Weather in Rochester, New York, USA — Yesterday and Last 2 Weeks

Now
74 °F

Partly sunny.


Feels Like: 77 °F
Forecast: 69 / 79 °F
Wind: 9 mph from East

Location: Greater Rochester International Airport

Current Time: Jul 30, 2016 at 9:11:28 AM

Latest Report: Jul 30, 2016 at 8:54 AM


Visibility: 10 mi

Pressure: 30.04 "Hg

Humidity: 60%

Dew Point: 59 °F

Location of RochesterLocation

Past Weather in Rochester — Graph

°F

Rochester Temperature Yesterday

Maximum temperature yesterday: 82 °F (at 1:54 PM)
Minimum temperature yesterday: 65 °F (at 5:54 AM)
Average temperature yesterday: 75 °F

High & Low Weather Summary for the Past Weeks

 TemperatureHumidityPressure
High92 °F (Jul 22, 5:54 PM)97% (Jul 17, 5:54 AM)30.28 "Hg (Jul 17, 5:54 AM)
Low53 °F (Jul 20, 5:54 AM)27% (Jul 21, 5:54 PM)29.80 "Hg (Jul 22, 6:54 PM)
Average75 °F64%30.00 "Hg
* Reported Jul 15 7:54 AM — Jul 30 7:54 AM, Rochester, Weather by CustomWeather, © 2016

Note: Actual official high and low records may vary slightly from our data, if they occured in-between our weather recording intervals... More about our weather records

Advertising

Rochester Weather History for the Previous 24 Hours

Scroll right to see more
 ConditionsComfort  
Time TempWeatherWind HumidityBarometerVisibility
7:54 AM
Sat, Jul 30
70 °FOvercast.7 mph71%30.04 "Hg10 mi
6:54 AM69 °FClear.8 mph73%30.03 "Hg10 mi
5:54 AM69 °FPassing clouds.7 mph73%30.02 "Hg10 mi
4:54 AM69 °FPassing clouds.8 mph70%30.01 "Hg10 mi
3:54 AM70 °FClear.10 mph68%30.01 "Hg10 mi
2:54 AM71 °FPassing clouds.14 mph68%30.01 "Hg10 mi
1:54 AM71 °FClear.12 mph73%30.00 "Hg10 mi
12:54 AM71 °FClear.6 mph78%30.01 "Hg10 mi
11:54 PM
Fri, Jul 29
69 °FClear.No wind76%30.01 "Hg10 mi
10:54 PM70 °FClear.No wind71%30.00 "Hg10 mi
9:54 PM72 °FPassing clouds.No wind66%29.99 "Hg10 mi
8:54 PM75 °FPartly sunny.5 mph58%29.98 "Hg10 mi
7:54 PM78 °FPartly sunny.7 mph50%29.97 "Hg10 mi
6:54 PM81 °FPartly sunny.8 mph45%29.96 "Hg10 mi
5:54 PM82 °FPartly sunny.12 mph44%29.95 "Hg10 mi
4:54 PM82 °FPartly sunny.8 mph46%29.96 "Hg10 mi
3:54 PM82 °FPartly sunny.12 mph51%29.96 "Hg10 mi
2:54 PM82 °FPartly sunny.13 mph49%29.96 "Hg10 mi
1:54 PM82 °FPartly sunny.13 mph53%29.96 "Hg10 mi
12:54 PM80 °FPassing clouds.12 mph58%29.96 "Hg10 mi
11:54 AM79 °FPassing clouds.12 mph60%29.96 "Hg10 mi
10:54 AM77 °FPartly sunny.10 mph66%29.96 "Hg10 mi
9:54 AM77 °FPartly sunny.12 mph66%29.96 "Hg10 mi
Weather by CustomWeather, © 2016

See weather overviewHow to use our weather pages